Change the Weather History Date:

Monday, March 25, 2013

  Actual Average Record
Temperature  
Mean Temperature 62 °F 71 °F  
Max Temperature 69 °F 82 °F 102 °F (1928)
Min Temperature 54 °F 60 °F 39 °F (1918)
Degree Days  
Heating Degree Days 3 1  
Month to date heating degree days 39 43  
Since 1 July heating degree days 387 611  
Cooling Degree Days 0 7  
Month to date cooling degree days 124 127  
Year to date cooling degree days 318 252  
Growing Degree Days 10 (Base 50)    
Moisture  
Dew Point 41 °F    
Average Humidity 48    
Maximum Humidity 53    
Minimum Humidity 42    
Precipitation  
Precipitation 0.00 in 0.05 in 0.70 in (1943)
Month to date precipitation 0.06 0.99  
Year to date precipitation 2.80 3.46  
Sea Level Pressure  
Sea Level Pressure 30.20 in    
Wind  
Wind Speed 15 mph (NE)    
Max Wind Speed 25 mph    
Max Gust Speed 30 mph    
Visibility 10 miles    
Events      
T = Trace of Precipitation, MM = Missing Value Source: NWS Daily Summary

Daily Weather History Graph

Daily Weather History Graph

Search for Another Location

Airport or City:

Trip Planner

Search our weather history database for the weather conditions in past years. The results will help you decide how hot, cold, wet, or windy it might be!

Date:

Astronomy

Mar. 25, 2013 Rise Set
Actual Time 7:28 AM CDT 7:44 PM CDT
Civil Twilight 7:05 AM CDT 8:07 PM CDT
Nautical Twilight 6:38 AM CDT 8:34 PM CDT
Astronomical Twilight 6:11 AM CDT 9:01 PM CDT
Moon 6:22 PM CDT (3/25) 6:05 AM CDT (3/25)
Length of Visible Light 13h 01m
Length of Day
12h 15m
Waxing Gibbous, 96% of the Moon is Illuminated
Mar 25
Waxing Gibbous
Mar 27
Full
Apr 2
Last Quarter
Apr 10
New
Apr 18
First Quarter

Hourly Weather History & Observations

Time (CDT) Temp. Dew Point Humidity Pressure Visibility Wind Dir Wind Speed Gust Speed Precip Events Conditions
12:52 AM 57.9 °F 36.0 °F 44% 30.07 in 10.0 mi NE 11.5 mph - N/A   Clear
1:52 AM 57.9 °F 37.0 °F 46% 30.08 in 10.0 mi NE 13.8 mph - N/A   Clear
2:52 AM 57.0 °F 35.1 °F 44% 30.09 in 10.0 mi NE 11.5 mph - N/A   Clear
3:52 AM 55.9 °F 36.0 °F 47% 30.11 in 10.0 mi NNE 11.5 mph - N/A   Clear
4:52 AM 55.9 °F 37.0 °F 49% 30.12 in 10.0 mi NNE 12.7 mph - N/A   Overcast
5:52 AM 57.0 °F 37.9 °F 49% 30.14 in 10.0 mi NNE 13.8 mph - N/A   Overcast
6:52 AM 57.0 °F 39.0 °F 51% 30.16 in 10.0 mi NE 12.7 mph - N/A   Overcast
7:52 AM 57.0 °F 39.9 °F 53% 30.19 in 10.0 mi NE 13.8 mph - N/A   Overcast
8:52 AM 59.0 °F 41.0 °F 51% 30.22 in 10.0 mi NNE 15.0 mph - N/A   Overcast
9:52 AM 63.0 °F 43.0 °F 48% 30.25 in 10.0 mi NE 19.6 mph - N/A   Clear
10:52 AM 64.9 °F 44.1 °F 47% 30.27 in 10.0 mi ENE 18.4 mph - N/A   Scattered Clouds
11:52 AM 66.0 °F 44.1 °F 45% 30.27 in 10.0 mi NE 12.7 mph - N/A   Overcast
12:52 PM 66.9 °F 45.0 °F 45% 30.26 in 10.0 mi ENE 20.7 mph 27.6 mph N/A   Mostly Cloudy
1:52 PM 66.0 °F 44.1 °F 45% 30.23 in 10.0 mi NE 18.4 mph 25.3 mph N/A   Overcast
2:52 PM 66.0 °F 43.0 °F 43% 30.22 in 10.0 mi ENE 15.0 mph 24.2 mph N/A   Mostly Cloudy
3:52 PM 66.9 °F 44.1 °F 44% 30.20 in 10.0 mi NE 18.4 mph 25.3 mph N/A   Scattered Clouds
4:52 PM 64.0 °F 45.0 °F 50% 30.20 in 10.0 mi ENE 21.9 mph 26.5 mph N/A   Mostly Cloudy
5:52 PM 63.0 °F 44.1 °F 50% 30.19 in 10.0 mi NE 21.9 mph 28.8 mph N/A   Partly Cloudy
6:52 PM 60.1 °F 43.0 °F 53% 30.21 in 10.0 mi ENE 18.4 mph 25.3 mph N/A   Overcast
7:52 PM 59.0 °F 42.1 °F 53% 30.23 in 10.0 mi ENE 15.0 mph - N/A   Overcast
8:52 PM 59.0 °F 42.1 °F 53% 30.26 in 10.0 mi NE 11.5 mph 20.7 mph N/A   Overcast
9:52 PM 59.0 °F 41.0 °F 51% 30.28 in 10.0 mi ENE 12.7 mph - N/A   Overcast
10:52 PM 57.9 °F 39.9 °F 51% 30.30 in 10.0 mi ENE 12.7 mph - N/A   Overcast
11:52 PM 57.9 °F 39.9 °F 51% 30.32 in 10.0 mi ENE 8.1 mph - N/A   Overcast